NS8S Weather Reports


time (UTC)temp
F
wind
direction
speed
knots
gust
knots
rain 1hr
in
rain 24hr
in
rain mn
in
humidity
%
barometer
mb
20260509004607 57 156 0.0 3.5 0.00 0.00 0.00 30 1006.3
20260509003057 57 186 0.0 3.5 0.00 0.00 0.00 30 1006.4
20260509001554 58 193 1.7 8.7 0.00 0.00 0.00 28 1006.6
20260509000010 58 175 3.5 8.7 0.00 0.00 0.00 28 1006.8
20260508234506 58 215 1.7 10.4 0.00 0.00 0.00 30 1006.8
20260508233100 58 193 2.6 8.7 0.00 0.00 0.00 29 1007.1
20260508233004 58 168 3.5 8.7 0.00 0.00 0.00 28 1007.0
20260508231608 58 181 2.6 11.3 0.00 0.00 0.00 30 1007.2
20260508231503 58 217 2.6 11.3 0.00 0.00 0.00 30 1007.2
20260508230056 58 137 3.5 14.8 0.00 0.00 0.00 29 1007.3
20260508224544 58 186 5.2 8.7 0.00 0.00 0.00 30 1007.5
20260508223100 58 221 4.3 8.7 0.00 0.00 0.00 31 1007.5
20260508221559 58 216 3.5 13.0 0.00 0.00 0.00 33 1007.6
20260508220051 58 225 5.2 10.4 0.00 0.00 0.00 31 1007.8
20260508214550 59 231 3.5 10.4 0.00 0.00 0.00 29 1007.9
20260508213044 58 184 2.6 15.6 0.00 0.00 0.00 35 1008.0
20260508211541 57 199 4.3 11.3 0.00 0.00 0.00 38 1008.2
20260508210039 56 191 5.2 13.9 0.00 0.00 0.00 38 1008.3
20260508204536 56 176 4.3 13.9 0.00 0.00 0.00 42 1008.6
20260508203040 56 198 6.1 13.9 0.00 0.00 0.00 40 1008.8
20260508201536 57 200 5.2 13.0 0.00 0.00 0.00 41 1009.1
20260508200030 56 187 4.3 12.2 0.00 0.00 0.00 45 1009.1
20260508194542 56 216 6.1 12.2 0.00 0.00 0.00 44 1009.2
20260508193037 56 199 7.0 11.3 0.00 0.00 0.00 44 1009.3
20260508191539 57 189 4.3 12.2 0.00 0.00 0.00 43 1009.5
20260508190036 58 190 4.3 11.3 0.00 0.00 0.00 40 1009.6
20260508184530 57 201 3.5 11.3 0.00 0.00 0.00 38 1009.8
20260508183034 57 189 2.6 11.3 0.00 0.00 0.00 38 1009.9
20260508181516 56 225 5.2 13.0 0.00 0.00 0.00 37 1010.0
20260508180006 56 183 6.1 14.8 0.00 0.00 0.00 39 1010.2
20260508174503 56 201 6.1 13.0 0.00 0.00 0.00 40 1010.5
20260508173100 55 185 5.2 13.9 0.00 0.00 0.00 42 1010.7
20260508171552 55 192 6.1 13.9 0.00 0.00 0.00 46 1010.9
20260508170010 55 216 3.5 13.0 0.00 0.00 0.00 48 1011.1
20260508164506 54 200 6.1 11.3 0.00 0.00 0.00 49 1011.3
20260508163057 54 207 5.2 12.2 0.00 0.00 0.00 53 1011.4
20260508161555 54 211 6.1 13.9 0.00 0.00 0.00 58 1011.3
20260508160052 53 220 3.5 10.4 0.00 0.00 0.00 61 1011.4
20260508154546 52 218 5.2 13.9 0.00 0.00 0.00 64 1011.4
20260508153038 51 179 6.1 12.2 0.00 0.00 0.00 65 1011.5
20260508151531 51 217 4.3 12.2 0.00 0.00 0.00 67 1011.5
20260508150030 52 218 5.2 12.2 0.00 0.00 0.00 63 1011.4
20260508144513 52 225 5.2 8.7 0.00 0.00 0.00 60 1011.5
20260508143009 52 195 1.7 9.6 0.00 0.00 0.00 57 1011.4
20260508141616 52 247 4.3 9.6 0.00 0.00 0.00 58 1011.5
20260508140054 51 199 4.3 10.4 0.00 0.00 0.00 62 1011.5